OneWeb SL0163

operational
NORAD ID: 48061 Int'l Des: 2021-025 Owner: ONEWEBN Country: UK Constellation: oneweb
LEOCIRCULARPOLARONEWEB_TYPE

Über OneWeb SL0163

Beschreibung wird geladen...

Live-Position

3D-Globus wird geladen...

Nächste Überflüge

Höhenverlauf

Altitude vs Time

uPlot chart will show altitude changes over time

Zweizeiliger Elementsatz

1 48061U 21025V 25258.57918551 -.00000291 00000-0 -83190-3 0 9990
2 48061 87.9035 14.7708 0001900 109.2412 250.8923 13.13470515217637
Epoch: 15. Sept. 2025 • Age: 16 hours

Aktueller Status

Höhe 1224.0 km
Geschwindigkeit 7.24 km/s
Subsatellitenpunkt -34.81°S, 74.94°W
Startdatum 25. März 2021
Alter 4.4 years
Typ internet

Technische Details

Klassifizierung Payload
Masse 148.00 kg
Trockenmasse 140.00 kg
Gesamtmasse 148.00 kg
Länge 1.30 m
Durchmesser 1.00 m
Spannweite 5.00 m
Form Trapezoid+2 pan
Hersteller ONEWUS
Bus-Typ ARROW
Phasenstatus In Orbit
Besitzer/Staat ONEWEBN/UK

Große Konstellationen

Loading constellations...